Regional Weather Roundup
Issued by NWS

Home | Current Version | Previous Version | Text Only | Print | Product List | Glossary Off
Versions: 1 2 3 4 5 6 7 8 9 10 11 12 13 14 15 16 17 18 19 20 21 22 23 24 25 26 27

000
ASUS45 KBOU 230807
RWRCO

WEATHER ROUNDUP FOR COLORADO
NATIONAL WEATHER SERVICE DENVER/BOULDER CO
200 AM MDT MON OCT 23 2017

NOTE: "FAIR" INDICATES FEW OR NO CLOUDS BELOW 12000 FEET WITH NO
SIGNIFICANT WEATHER AND/OR OBSTRUCTIONS TO VISIBILITY.

COZ001>005-013-030-031-230900-
...NORTHWEST COLORADO...

CITY           SKY/WX    TMP DP  RH WIND       PRES   REMARKS
CRAIG          CLOUDY    46  30  53 W8        30.40S
HAYDEN         CLOUDY    48  26  42 N6        30.43R
MEEKER         CLOUDY    37  30  75 E7        30.45R
RABBIT EARS PA CLOUDY    32  27  80 W16G29    30.50R WCI  21
STEAMBOAT SPGS CLOUDY    44  30  56 CALM      30.42S
WALDEN         NOT AVBL
$$

COZ006>008-011-230900-
...WEST CENTRAL VALLEYS...

CITY           SKY/WX    TMP DP  RH WIND       PRES   REMARKS
GRAND JUNCTION FAIR      44  21  40 SE3       30.40S
MONTROSE       FAIR      37  24  59 SE10      30.47S
EAGLE          FAIR      37  27  67 E8        30.48R
RIFLE          FAIR      38  29  70 S3        30.45R
DELTA          FAIR      41  23  48 E5        30.45S
NUCLA          FAIR      41  19  42 SE5       30.48S
$$

COZ017>023-064>068-230900-
...SOUTHWEST COLORADO...

CITY           SKY/WX    TMP DP  RH WIND       PRES   REMARKS
DURANGO        FAIR      34  20  56 E3        30.40F
CORTEZ         FAIR      35  20  54 E6        30.42F WCI  30
PAGOSA SPRINGS FAIR      34  19  53 CALM      30.44S
TELLURIDE      FAIR      37  19  48 CALM      30.58S
WOLF CREEK PAS FAIR      37  21  52 W12       30.65S
$$

COZ009-010-012-014-032>034-037-058>063-230900-
...CENTRAL COLORADO...

CITY           SKY/WX    TMP DP  RH WIND       PRES   REMARKS
ASPEN          FAIR      32  26  78 S6        30.48F WCI  26
BUENA VISTA    FAIR      49  20  31 W15G25    30.36F
COPPER MTN     CLOUDY    34  25  69 NW9       30.59R WCI  26
BERTHOUD PASS  CLOUDY    28  18  64 NW51G64   30.51R WCI   9
COTTONWOOD PAS FAIR      48  23  37 SW30G53   30.40F
GUNNISON       FAIR      29  22  75 CALM      30.50R
KREMMLING      FAIR      48  25  40 SW7       30.42S
LEADVILLE      FAIR      38  17  42 N18G30    30.50S
MONARCH PASS   FAIR      30  18  59 W47G56    30.62F WCI  12
SALIDA         FAIR      46  21  36 N6        30.41F
SUNLIGHT       FAIR      32  19  59 SW10G21   30.61S WCI  24
WILKERSON PASS FAIR      34  19  55 W14G23    30.46F WCI  24
$$

COZ069>075-230900-
...SAN LUIS VALLEY/SANGRE DE CRISTO MOUNTAINS...

CITY           SKY/WX    TMP DP  RH WIND       PRES   REMARKS
ALAMOSA        FAIR      27  19  72 W3        30.41S
DEL NORTE      FAIR      33  17  53 W9        30.43S WCI  25
LA VETA PASS   FAIR      39  19  45 SW15G24   30.56S
SAGUACHE       FAIR      37  21  52 NE3       30.42S
$$

COZ035-036-038>040-230900-
...NORTHERN COLORADO FRONT RANGE...

CITY           SKY/WX    TMP DP  RH WIND       PRES   REMARKS
DENVER INTL AP FAIR      62  24  23 W22G30    30.17R
DMNS CITY PARK   N/A     63  24  22 NW13G25   30.17S
AURORA         PTCLDY    59  26  27 W10       30.18R
FRONT RANGE AP FAIR      61  28  29 NW14G24   30.18R
ERIE MUNI ARPT FAIR      62  24  23 NW6G23    30.20R
BOULDER MUN AP FAIR      59  27  29 S7        30.15S
CENTENNIAL     FAIR      57  25  29 SE5       30.19R
BROOMFIELD     FAIR      63  27  25 NW15G36   30.19F
FORT COLLINS   FAIR      58  30  34 N8        30.14S
LONGMONT       FAIR      65  26  23 W31G45    30.15F
$$

COZ041-046-047-076>085-087-088-230900-
...PIKES PEAK/PALMER DIVIDE AND SOUTHERN FOOTHILLS...

CITY           SKY/WX    TMP DP  RH WIND       PRES   REMARKS
COLO. SPRINGS  FAIR      53  27  36 N5        30.19F
A. F. ACADEMY  FAIR      60  23  24 N6G23     30.20F
SCHRIEVER AFB  FAIR      50  25  37 N3        30.20F
CHEYENNE MTN   FAIR      62  22  21 NW28G39   30.14F
ELLICOTT         N/A    N/A N/A N/A N3        30.19S
FALCON         FAIR      52  23  31 NW13      30.22F
FORT CARSON    FAIR      52  26  36 S7        30.17F
LIMON          FAIR      35  27  72 N5        30.17S WCI  31
MONUMENT HILL  FAIR      41  27  56 NW7       30.26R
CANON CITY     FAIR      52  27  37 W7        30.20F
WALSENBURG     NOT AVBL
TRINIDAD       FAIR      56  23  27 NE6       30.20S
$$

COZ042>045-048>051-090-091-230900-
...NORTHEAST COLORADO...

CITY           SKY/WX    TMP DP  RH WIND       PRES   REMARKS
GREELEY ARPT   FAIR      44  31  60 S6        30.16R
AKRON          FAIR      58  29  33 NW24G31   30.11S
BURLINGTON     FAIR      43  29  57 W10       30.11R
WRAY           NOT AVBL
YUMA           FAIR      43  30  61 W10       30.09S
STERLING       FAIR      50  32  50 NW6       30.10R
HOLYOKE        FAIR      61  32  33 NW18G29   30.06F
FORT MORGAN    FAIR      61  27  27 NW28G37   30.13S
$$

COZ086-089-092>099-230900-
...SOUTHEAST COLORADO...

CITY           SKY/WX    TMP DP  RH WIND       PRES   REMARKS
PUEBLO         FAIR      60  25  26 NW10      30.14R
LA JUNTA       FAIR      47  30  51 W5        30.12S
LAMAR          FAIR      38  28  67 NW3       30.10R
SPRINGFIELD      N/A     46  30  53 NW13      30.11S
$$




USA.gov is the U.S. government's official web portal to all federal, state and local government web resources and services.